Regional Weather Roundup
Issued by NWS Little Rock, AR

Home | Current Version | Previous Version | Graphics & Text | Print | Product List | Glossary On
Versions: 1 2 3 4 5 6 7 8 9 10 11 12 13 14 15 16 17 18 19 20 21 22 23 24 25 26 27 28 29 30 31 32 33 34 35 36 37 38 39 40 41 42 43 44 45 46 47 48 49 50
000
ASUS44 KLZK 090805
RWRLZK

WEATHER ROUNDUP FOR ARKANSAS
NATIONAL WEATHER SERVICE LITTLE ROCK AR
200 AM CST TUE FEB 09 2016

NOTE: "FAIR" INDICATES FEW OR NO CLOUDS BELOW 12,000 FEET WITH NO
SIGNIFICANT WEATHER AND/OR OBSTRUCTIONS TO VISIBILITY.

ARZ001-003-010-029-090900-
NORTHWEST ARKANSAS

CITY           SKY/WX    TMP DP  RH WIND       PRES   REMARKS
FAYETTEVILLE   PTCLDY    31  17  56 NW10G20   30.08F WCI  22
FORT SMITH     CLEAR     36  15  42 W15       30.14F
HARRISON       CLEAR     29  13  51 NW16G22   30.00F WCI  17
BENTONVILLE    PTCLDY    32  14  47 NW10G16   30.08S WCI  24
ROGERS         CLEAR     30  17  58 NW15      30.06F WCI  19
SILOAM SPGS    PTCLDY    30  12  47 NW15      30.09F WCI  19
HIGHFILL       PTCLDY    31  17  56 NW12      30.07F WCI  22
$$

ARZ004-005-016-090900-
NORTH CENTRAL ARKANSAS

CITY           SKY/WX    TMP DP  RH WIND       PRES   REMARKS
BATESVILLE     PTCLDY    32  12  43 SW12G20   30.00F WCI  23
FLIPPIN        CLEAR    N/A N/A N/A NW16G24   29.98F
MTN HOME       CLEAR     29  14  53 NW10G20   29.98F WCI  20
$$

ARZ040-041-090900-
WEST CENTRAL ARKANSAS

CITY           SKY/WX    TMP DP  RH WIND       PRES   REMARKS
MENA           CLEAR     39  18  41 NW12G20   30.11S
MOUNT IDA      CLEAR     38  14  37 NW13G33   30.05F
$$

ARZ009-017-025-026-028-090900-
NORTHEAST ARKANSAS

CITY           SKY/WX    TMP DP  RH WIND       PRES   REMARKS
CORNING        FAIR      32  18  55 NW16G23   29.96F WCI  21
JONESBORO      CLOUDY    31  18  58 NW9       29.97F WCI  23
NEWPORT        PTCLDY    32  16  52 NW15G26   30.00F WCI  22
WALNUT RIDGE   CLOUDY    30  16  55 NW16      29.98F WCI  19
BLYTHEVILLE    CLOUDY    32  19  58 NW14      29.95F WCI  22
$$

ARZ022-023-033-042-044-090900-
CENTRAL ARKANSAS

CITY           SKY/WX    TMP DP  RH WIND       PRES   REMARKS
LITTLE ROCK    MOCLDY    38  12  34 NW22G31   30.05S
N LITTLE ROCK    N/A     35  14  42 NW10G20   30.05S WCI  27
JACKSONVILLE   PTCLDY    33  14  44 W8        30.03S WCI  27
SEARCY         CLEAR     34  15  46 NW9       30.04S WCI  27
HOT SPRINGS    CLEAR     39  14  36 NW9G22    30.07F
RUSSELLVILLE   PTCLDY    36  14  40 NW13      30.06S
CLINTON        FAIR      34  12  40 NW9G23    30.03S WCI  26
$$

ARZ036-090900-
EAST ARKANSAS

CITY           SKY/WX    TMP DP  RH WIND       PRES   REMARKS
WEST MEMPHIS   CLOUDY    33  21  61 NW10G18   29.98S WCI  25
$$

ARZ050-053-066-070-073-090900-
SOUTHWEST ARKANSAS

CITY           SKY/WX    TMP DP  RH WIND       PRES   REMARKS
ARKADELPHIA    FAIR      39  16  39 W8        30.11S
CAMDEN         MIX PCPN  39   9  28 W7        30.12R
TEXARKANA      CLEAR     39  15  37 W8        30.16S
EL DORADO      CLEAR     37  14  38 W7        30.12S
DE QUEEN       CLEAR     39  17  41 NW7       30.14F
$$

ARZ056-057-069-090900-
SOUTHEAST ARKANSAS

CITY           SKY/WX    TMP DP  RH WIND       PRES   REMARKS
PINE BLUFF     PTCLDY    35  15  44 W8        30.07R WCI  29
STUTTGART      CLEAR     32  19  59 NW9       30.04F WCI  24
MONTICELLO     PTCLDY    35  15  44 NW6       30.07S WCI  30

$$





USA.gov is the U.S. government's official web portal to all federal, state and local government web resources and services.